Weather reports worldwide

Advertisment
Houston, tx, United States of America (2072868): temperature & dewpoint: 05.07.2020 08:00:00 - 11.07.2020 08:00:00 (CDT)Houston, tx, United States of America (2072868): wind speed: 05.07.2020 08:00:00 - 11.07.2020 08:00:00 (CDT)Houston, tx, United States of America (2072868): wind direction: 05.07.2020 08:00:00 - 11.07.2020 08:00:00 (CDT)Houston, tx, United States of America (2072868): reduced air pressure: 05.07.2020 08:00:00 - 11.07.2020 08:00:00 (CDT)Houston, tx, United States of America (2072868): visibility: 05.07.2020 08:00:00 - 11.07.2020 08:00:00 (CDT)Houston, tx, United States of America (2072868): precipitation: 05.07.2020 08:00:00 - 11.07.2020 08:00:00 (CDT)
Date & Time tt [°C] td [°C] ff [km/h] ff [kn] dd ppp [hPa] vv [km] rr [mm]
11.07.2020 08:00:00 28,3 24,4 0 0 N 1017,8 13 -
11.07.2020 07:00:00 26,7 23,9 0 0 N 1017,3 11 -
11.07.2020 06:00:00 26,7 24,4 0 0 N 1016,8 15 -
11.07.2020 05:00:00 26,7 24,4 5 3 S 1016,1 13 -
11.07.2020 04:00:00 26,7 24,4 0 0 N 1016,0 13 -
11.07.2020 03:00:00 27,2 24,4 0 0 N 1016,6 15 -
11.07.2020 02:00:00 27,8 24,4 0 0 N 1016,6 15 -
11.07.2020 01:00:00 27,8 25,0 0 0 N 1016,0 13 -
11.07.2020 00:00:00 28,3 25,0 8 4 SSW 1015,8 15 -
10.07.2020 23:00:00 28,9 25,0 9 5 SSW 1016,2 15 -
10.07.2020 22:00:00 29,4 25,0 13 7 S 1016,0 16 -
10.07.2020 21:00:00 30,6 24,4 9 5 SSE 1016,2 16 -
10.07.2020 20:00:00 31,7 24,4 15 8 S 1015,4 15 -
10.07.2020 19:00:00 33,3 24,4 16 9 SSE 1015,8 16 -
10.07.2020 18:00:00 33,9 25,0 22 12 S 1015,8 16 -
10.07.2020 17:00:00 34,4 25,0 18 10 S 1016,4 16 -
10.07.2020 16:00:00 35,6 23,9 13 7 S 1016,6 16 -
10.07.2020 15:00:00 35,6 23,3 8 4 SSE 1016,8 16 -
10.07.2020 14:00:00 35,0 23,3 16 9 SSE 1016,9 16 -
10.07.2020 13:00:00 34,4 22,2 9 5 - 1017,5 16 -
10.07.2020 12:00:00 33,9 23,3 8 4 SSW 1017,6 16 -
10.07.2020 11:00:00 32,2 23,3 9 5 S 1017,7 16 -
10.07.2020 10:00:00 31,7 23,9 9 5 S 1017,5 16 -
10.07.2020 09:00:00 29,4 25,0 5 3 S 1017,5 13 -
10.07.2020 08:00:00 27,8 24,4 5 3 S 1017,1 13 -
10.07.2020 07:00:00 26,1 23,9 0 0 N 1016,6 10 -
10.07.2020 06:00:00 26,1 23,9 5 3 NE 1016,1 11 -
10.07.2020 05:00:00 26,7 24,4 0 0 N 1015,0 13 -
10.07.2020 04:00:00 26,7 23,9 5 3 S 1014,6 13 -
10.07.2020 03:00:00 26,7 23,9 0 0 N 1014,7 13 -
10.07.2020 02:00:00 27,2 23,9 0 0 N 1014,9 13 -
10.07.2020 01:00:00 27,8 23,9 0 0 N 1015,1 15 -
10.07.2020 00:00:00 27,8 23,9 5 3 SSE 1014,7 15 -
09.07.2020 23:00:00 27,8 23,9 8 4 S 1014,3 15 -
09.07.2020 22:00:00 28,9 23,3 8 4 SSE 1014,2 15 -
09.07.2020 21:00:00 30,0 23,3 8 4 SSE 1013,9 16 -
09.07.2020 20:00:00 31,1 22,8 11 6 S 1013,6 15 -
09.07.2020 19:00:00 31,7 23,9 16 9 SSE 1013,4 15 -
09.07.2020 18:00:00 32,8 22,2 21 11 S 1013,2 16 -
09.07.2020 17:00:00 32,8 23,3 26 14 S 1013,3 15 -
09.07.2020 16:00:00 33,9 22,8 24 13 S 1013,5 15 -
09.07.2020 15:00:00 33,9 22,8 24 13 SSE 1013,7 15 -
09.07.2020 14:00:00 33,9 22,8 21 11 S 1013,9 15 -
09.07.2020 13:00:00 33,3 23,9 21 11 S 1014,1 15 -
09.07.2020 12:00:00 32,8 23,9 15 8 S 1014,3 13 -
09.07.2020 11:00:00 32,8 22,8 22 12 S 1013,9 15 -
09.07.2020 10:00:00 31,1 23,9 15 8 SSW 1013,9 13 -
09.07.2020 09:00:00 30,6 25,0 16 9 S 1014,0 11 -
09.07.2020 08:00:00 28,9 25,6 9 5 S 1013,8 10 -
09.07.2020 07:00:00 27,8 25,0 5 3 SSE 1013,5 8 -
09.07.2020 06:00:00 27,8 25,0 9 5 S 1013,2 10 -
09.07.2020 05:00:00 27,8 25,0 8 4 S 1013,1 11 -
09.07.2020 04:00:00 27,8 25,0 9 5 S 1012,8 11 -
09.07.2020 03:00:00 27,8 24,4 9 5 S 1013,0 11 -
09.07.2020 02:00:00 27,8 24,4 9 5 S 1013,5 11 -
09.07.2020 01:00:00 27,8 24,4 8 4 S 1013,9 13 -
09.07.2020 00:00:00 27,8 24,4 8 4 S 1013,9 13 -
08.07.2020 23:00:00 28,3 23,9 9 5 S 1013,7 13 -
08.07.2020 22:00:00 28,9 23,9 9 5 S 1013,3 13 -
08.07.2020 21:00:00 30,0 23,3 13 7 S 1013,0 15 -
08.07.2020 20:00:00 31,1 22,8 18 10 S 1012,7 13 -
08.07.2020 19:00:00 31,7 23,3 13 7 S 1012,5 13 -
08.07.2020 18:00:00 33,3 23,3 24 13 S 1012,5 13 -
08.07.2020 17:00:00 33,3 22,8 21 11 S 1012,9 13 -
08.07.2020 16:00:00 33,3 22,8 16 9 SSW 1013,1 13 -
08.07.2020 15:00:00 33,9 22,8 18 10 SSW 1013,4 13 -
08.07.2020 14:00:00 34,4 22,2 18 10 SW 1013,9 13 -
08.07.2020 13:00:00 33,3 21,1 16 9 S 1014,7 13 -
08.07.2020 12:00:00 32,8 21,7 13 7 SSW 1014,8 13 -
08.07.2020 11:00:00 32,2 22,8 16 9 SSW 1015,0 11 -
08.07.2020 10:00:00 31,1 23,3 21 11 S 1014,8 11 -
08.07.2020 09:00:00 29,4 24,4 15 8 S 1014,9 11 -
08.07.2020 08:00:00 28,3 24,4 8 4 S 1014,6 10 -
08.07.2020 07:00:00 27,2 24,4 0 0 N 1014,2 10 -
08.07.2020 06:00:00 27,8 24,4 0 0 N 1014,1 11 -
08.07.2020 05:00:00 28,3 24,4 11 6 S 1013,7 11 -
08.07.2020 04:00:00 28,3 25,0 8 4 S 1013,8 11 -
08.07.2020 03:00:00 28,3 25,0 13 7 S 1013,8 11 -
08.07.2020 02:00:00 28,9 25,6 13 7 S 1014,3 11 -
08.07.2020 01:00:00 28,3 25,0 5 3 SSE 1014,4 13 -
08.07.2020 00:00:00 28,9 25,0 9 5 SSE 1014,1 13 -
07.07.2020 23:00:00 28,9 24,4 8 4 SSE 1014,1 15 -
07.07.2020 22:00:00 28,9 23,9 8 4 SSE 1013,6 15 -
07.07.2020 21:00:00 29,4 23,9 9 5 SSE 1012,9 15 -
07.07.2020 20:00:00 30,6 23,9 16 9 S 1013,0 13 -
07.07.2020 19:00:00 32,2 22,2 9 5 S 1013,0 13 -
07.07.2020 18:00:00 33,3 21,1 13 7 S 1013,4 13 -
07.07.2020 17:00:00 33,3 21,1 13 7 SSW 1014,0 13 -
07.07.2020 16:00:00 33,9 21,7 16 9 SSW 1013,5 13 -
07.07.2020 15:00:00 33,3 21,7 15 8 SSW 1014,4 13 -
07.07.2020 14:00:00 33,3 21,7 13 7 SSW 1014,8 13 -
07.07.2020 13:00:00 32,8 21,1 11 6 SW 1015,3 13 -
07.07.2020 12:00:00 33,3 21,1 15 8 S 1015,6 15 -
07.07.2020 11:00:00 32,8 23,3 13 7 WSW 1015,2 15 -
07.07.2020 10:00:00 31,7 24,4 15 8 SSW 1015,0 13 -
07.07.2020 09:00:00 29,4 25,6 13 7 S 1015,0 13 -
07.07.2020 08:00:00 28,9 25,0 8 4 S 1015,1 13 -
07.07.2020 07:00:00 27,8 25,0 0 0 N 1014,7 13 -
07.07.2020 06:00:00 27,8 25,0 0 0 N 1014,3 15 -
07.07.2020 05:00:00 27,8 25,0 5 3 S 1014,1 15 -
07.07.2020 04:00:00 27,8 24,4 0 0 N 1014,3 15 -
07.07.2020 03:00:00 27,8 24,4 5 3 S 1014,0 15 -
07.07.2020 02:00:00 27,8 24,4 8 4 S 1014,0 15 -
07.07.2020 01:00:00 28,3 24,4 11 6 S 1013,9 15 -
07.07.2020 00:00:00 28,3 24,4 9 5 S 1013,5 16 -
06.07.2020 23:00:00 28,3 24,4 9 5 S 1013,5 16 -
06.07.2020 22:00:00 28,9 23,9 13 7 S 1013,1 16 -
06.07.2020 21:00:00 30,0 24,4 11 6 S 1012,9 16 -
06.07.2020 20:00:00 31,1 23,9 16 9 S 1012,7 16 -
06.07.2020 19:00:00 32,8 22,8 16 9 S 1012,5 16 -
06.07.2020 18:00:00 33,3 22,8 16 9 S 1012,5 16 -
06.07.2020 17:00:00 33,3 23,3 13 7 SSW 1013,0 16 0,0
06.07.2020 16:00:00 33,3 23,3 13 7 S 1013,2 16 -
06.07.2020 15:00:00 32,8 22,8 15 8 S 1013,8 16 -
06.07.2020 14:00:00 32,8 22,8 11 6 SW 1014,1 16 -
06.07.2020 13:00:00 32,2 23,3 9 5 - 1014,0 16 -
06.07.2020 12:00:00 31,1 23,3 11 6 WSW 1014,6 15 -
06.07.2020 11:00:00 30,6 23,9 15 8 S 1014,2 13 -
06.07.2020 10:00:00 30,6 23,9 11 6 WSW 1014,0 13 -
06.07.2020 09:00:00 28,9 25,0 5 3 - 1013,7 13 -
06.07.2020 08:00:00 28,3 25,0 8 4 SSW 1013,0 11 -
06.07.2020 07:00:00 27,8 25,0 9 5 S 1012,4 11 0,0
06.07.2020 06:00:00 27,8 24,4 9 5 SSW 1012,2 15 0,0
06.07.2020 05:00:00 27,8 24,4 9 5 S 1011,8 15 -
06.07.2020 04:00:00 27,8 24,4 15 8 S 1011,1 15 0,3
06.07.2020 03:00:00 27,8 24,4 13 7 S 1011,0 16 0,0
06.07.2020 02:00:00 27,8 24,4 8 4 SSW 1011,5 16 -
06.07.2020 01:00:00 27,8 23,9 9 5 S 1011,5 16 -
06.07.2020 00:00:00 27,8 23,9 8 4 S 1011,4 16 -
05.07.2020 23:00:00 28,3 23,9 9 5 S 1010,8 16 -
05.07.2020 22:00:00 28,9 23,3 9 5 SSW 1010,7 16 -
05.07.2020 21:00:00 29,4 22,8 11 6 SSW 1010,3 16 -
05.07.2020 20:00:00 31,7 22,8 18 10 S 1009,9 16 -
05.07.2020 19:00:00 32,2 22,2 9 5 SSW 1009,7 15 -
05.07.2020 18:00:00 33,3 22,2 5 3 SSW 1010,2 15 -
05.07.2020 17:00:00 34,4 21,1 8 4 - 1010,4 16 -
05.07.2020 16:00:00 34,4 21,1 11 6 WSW 1011,1 16 -
05.07.2020 15:00:00 33,3 21,7 5 3 SSW 1012,0 16 -
05.07.2020 14:00:00 32,8 22,2 11 6 WNW 1012,5 16 -
05.07.2020 13:00:00 32,2 22,8 8 4 W 1012,8 16 -
05.07.2020 12:00:00 31,1 22,8 9 5 W 1012,8 16 -
05.07.2020 11:00:00 30,6 22,8 13 7 WSW 1012,9 16 -
05.07.2020 10:00:00 30,0 23,3 13 7 SW 1013,1 16 -
05.07.2020 09:00:00 28,3 23,9 16 9 WSW 1013,2 15 -
05.07.2020 08:00:00 26,1 23,9 5 3 SSW 1012,7 11 -

tt = temperature
td = dewpoint
ff = wind speed
dd = wind direction
ppp = reduced air pressure
vv = visibility
rr = precipitation

Next stations